Location: Newark
(44.2003°N, 3.2583°E)
Time: 02:47:19
(UTC+00:00)

FALCON 9 DEB - Pass Details

Date: 26 September 2020
Orbit: 149 x 168 km, 53.0° (Epoch: 28 September)

Event Time Altitude Azimuth Distance (km) Brightness Sun altitude
Exits shadow 03:20:48 - 62° (ENE) 1,354 ? -24.9°
Enters shadow 04:13:50 -72° 286° (WNW) 12,352 ? -16.0°
Maximum altitude 04:50:51 40° 31° (NNE) 279 ? -9.5°
